Tracking 17938 objects as of 21-February-2017
HD Live streaming from Space Station
objects crossing your sky now

GSAT 3 (EDUSAT)

Track GSAT 3 (EDUSAT) now!
GSAT 3 (EDUSAT) is classified as:


NORAD ID: 28417
Int'l Code: 2004-036A
Perigee: -6,371.0 km
Apogee: -6,371.0 km
Inclination: 5.0 °
Period: 0.0 minutes
Semi major axis: 0 km
RCS: 15.8866 m2 (large)
Launch date: September 20, 2004
Source: India (IND)
Launch site: SIRHARIKOTA (SRI)

Interactive education for remote areas of India; 6 C-band and 6 Ku-band transponders; first satellite dedicated to education.
Your satellite tracking list
Your tracking list is empty





NASA's NSSDC Master Catalog

Two Line Element Set (TLE):
1 28417U 04036A   17051.52812951 -.00000014  00000-0  00000+0 0  9997
2 28417   4.9718  62.5741 0002489 183.4896 356.3249  0.99263811 45314
Source of the keplerian elements: AFSPC